Regional Weather Roundup
Issued by NWS Goodland, KS

Home | Current Version | Previous Version | Text Only | Print | Product List | Glossary On
Versions: 1 2 3 4 5 6 7 8 9 10 11 12 13 14 15 16 17 18 19 20 21 22 23 24 25 26 27 28 29 30 31 32 33 34 35 36 37 38 39 40 41 42 43 44 45 46 47 48 49 50
000
ASUS43 KGLD 250708
RWRGLD

GOODLAND FORECAST AREA HOURLY WEATHER ROUNDUP
NATIONAL WEATHER SERVICE GOODLAND KS
100 AM MDT MON MAY 25 2015

...OFFICIAL OBSERVATIONS...

CITY           SKY/WX    TMP DP  RH WIND       PRES   REMARKS
GOODLAND KS    CLOUDY    50  49  96 S9        29.83F
HILL CITY KS   CLOUDY    55  52  89 SE6       29.76F
IMPERIAL NEB   CLOUDY    52  49  89 SE7       29.80R
MCCOOK NEB     CLOUDY    54  52  93 NE7       29.76F
AKRON CO       CLOUDY    45  45 100 W9        29.83F
BURLINGTON CO  CLOUDY    51  46  83 S15       29.82F
LIMON CO       PTCLDY    42  40  92 W6        29.87F
$$

...UNOFFICIAL OBSERVATIONS...

CITY           SKY/WX    TMP DP  RH WIND       PRES   REMARKS
GOVE KS          N/A     54  32  43 MISG        N/A
LENORA KS        N/A     53  32  45 MISG        N/A
SHARON SPRINGS   N/A     51  49  94 MISG        N/A
KIT CARSON CO    N/A     49  46  90 MISG        N/A
$$


USA.gov is the U.S. government's official web portal to all federal, state and local government web resources and services.